Year,Month,Day,Hour,Minute,Value (Times are PST for temperature in C)
2010,09,24,09,56,11.80
2010,09,24,09,57,11.80
2010,09,24,09,58,11.80
2010,09,24,09,59,11.80
2010,09,24,10,00,11.80
2010,09,24,10,01,11.90
2010,09,24,10,02,11.90
2010,09,24,10,03,11.90
2010,09,24,10,04,11.90
2010,09,24,10,05,11.80
2010,09,24,10,06,11.80
2010,09,24,10,07,11.80
2010,09,24,10,08,11.80
2010,09,24,10,09,11.80
2010,09,24,10,10,11.90
2010,09,24,10,11,11.90
2010,09,24,10,12,11.90
2010,09,24,10,13,11.80
2010,09,24,10,14,11.80
2010,09,24,10,15,11.90
2010,09,24,10,16,11.90
2010,09,24,10,17,11.90
2010,09,24,10,18,11.90
2010,09,24,10,19,12.00
2010,09,24,10,20,12.00
2010,09,24,10,21,12.00
2010,09,24,10,22,12.10
2010,09,24,10,23,12.10
2010,09,24,10,24,12.10
2010,09,24,10,25,12.10
2010,09,24,10,26,12.10
2010,09,24,10,27,12.10
2010,09,24,10,28,12.20
2010,09,24,10,29,12.20
2010,09,24,10,30,12.20
2010,09,24,10,31,12.30
2010,09,24,10,32,12.30
2010,09,24,10,33,12.30
2010,09,24,10,34,12.40
2010,09,24,10,35,12.40
2010,09,24,10,36,12.40
2010,09,24,10,37,12.40
2010,09,24,10,38,12.40
2010,09,24,10,39,12.40
2010,09,24,10,40,12.40
2010,09,24,10,41,12.40
2010,09,24,10,42,12.40
2010,09,24,10,43,12.40
2010,09,24,10,44,12.40
2010,09,24,10,45,12.40
2010,09,24,10,46,12.40
2010,09,24,10,47,12.40
2010,09,24,10,48,12.40
2010,09,24,10,49,12.40
2010,09,24,10,50,12.50
2010,09,24,10,51,12.50
2010,09,24,10,52,12.50
2010,09,24,10,53,12.60
2010,09,24,10,54,12.60
2010,09,24,10,55,12.60
2010,09,24,10,56,12.60
2010,09,24,10,57,12.60
2010,09,24,10,58,12.70
2010,09,24,10,59,12.70
2010,09,24,11,00,12.70
2010,09,24,11,01,12.60
2010,09,24,11,02,12.60
2010,09,24,11,03,12.70
2010,09,24,11,04,12.70
2010,09,24,11,05,12.70
2010,09,24,11,06,12.70
2010,09,24,11,07,12.70
2010,09,24,11,08,12.70
2010,09,24,11,09,12.70
2010,09,24,11,10,12.70
2010,09,24,11,11,12.70
2010,09,24,11,12,12.70
2010,09,24,11,13,12.70
2010,09,24,11,14,12.80
2010,09,24,11,15,12.80
2010,09,24,11,16,12.80
2010,09,24,11,17,12.80
2010,09,24,11,18,12.80
2010,09,24,11,19,12.80
2010,09,24,11,20,12.80
2010,09,24,11,21,12.80
2010,09,24,11,22,12.80
2010,09,24,11,23,12.80
2010,09,24,11,24,12.90
2010,09,24,11,25,12.90
2010,09,24,11,26,12.90
2010,09,24,11,27,12.90
2010,09,24,11,28,12.90
2010,09,24,11,29,12.90
2010,09,24,11,30,12.90
2010,09,24,11,31,12.90
2010,09,24,11,32,12.90
2010,09,24,11,33,13.00
2010,09,24,11,34,13.00
2010,09,24,11,35,13.00
2010,09,24,11,36,13.00
2010,09,24,11,37,13.00
2010,09,24,11,38,13.00
2010,09,24,11,39,13.00
2010,09,24,11,40,13.00
2010,09,24,11,41,12.90
2010,09,24,11,42,12.90
2010,09,24,11,43,12.90
2010,09,24,11,44,12.90
2010,09,24,11,45,12.80
2010,09,24,11,46,12.80
2010,09,24,11,47,12.80
2010,09,24,11,48,12.80
2010,09,24,11,49,12.90
2010,09,24,11,50,12.90
2010,09,24,11,51,12.90
2010,09,24,11,52,12.90
2010,09,24,11,53,12.90
2010,09,24,11,54,12.90
2010,09,24,11,55,12.90
2010,09,24,11,56,12.90
2010,09,24,11,57,12.90
2010,09,24,11,58,12.90
2010,09,24,11,59,12.90
2010,09,24,12,00,12.90
2010,09,24,12,01,12.90
2010,09,24,12,02,13.00
2010,09,24,12,03,13.00
2010,09,24,12,04,13.00
2010,09,24,12,05,13.00
2010,09,24,12,06,13.00
2010,09,24,12,07,13.00
2010,09,24,12,08,13.00
2010,09,24,12,09,13.00
2010,09,24,12,10,13.00
2010,09,24,12,11,13.00
2010,09,24,12,12,13.00
2010,09,24,12,13,13.00
2010,09,24,12,14,12.90
2010,09,24,12,15,12.90
2010,09,24,12,17,12.90
2010,09,24,12,19,12.90
2010,09,24,12,20,12.90
2010,09,24,12,21,12.90
2010,09,24,12,22,12.90
2010,09,24,12,23,12.90
2010,09,24,12,24,12.90
2010,09,24,12,25,12.90
2010,09,24,12,26,12.90
2010,09,24,12,27,12.90
2010,09,24,12,28,12.90
2010,09,24,12,29,12.90
2010,09,24,12,30,12.90
2010,09,24,12,31,12.90
2010,09,24,12,32,13.00
2010,09,24,12,33,13.00
2010,09,24,12,34,13.00
2010,09,24,12,35,13.00
2010,09,24,12,36,13.00
2010,09,24,12,37,13.00
2010,09,24,12,38,13.00
2010,09,24,12,39,13.00
2010,09,24,12,40,13.10
2010,09,24,12,41,13.10
2010,09,24,12,42,13.10
2010,09,24,12,43,13.10
2010,09,24,12,44,13.10
2010,09,24,12,45,13.20
2010,09,24,12,47,13.20
2010,09,24,12,48,13.20
2010,09,24,12,49,13.30
2010,09,24,12,50,13.30
2010,09,24,12,51,13.30
2010,09,24,12,52,13.30
2010,09,24,12,53,13.30
2010,09,24,12,54,13.30
2010,09,24,12,55,13.40
2010,09,24,12,56,13.40
2010,09,24,12,57,13.40
2010,09,24,12,58,13.40
2010,09,24,12,59,13.40
2010,09,24,13,00,13.40
2010,09,24,13,01,13.40
2010,09,24,13,02,13.40
2010,09,24,13,03,13.50
2010,09,24,13,04,13.50
2010,09,24,13,05,13.50
2010,09,24,13,06,13.50
2010,09,24,13,07,13.50
2010,09,24,13,08,13.50
2010,09,24,13,09,13.50
2010,09,24,13,10,13.50
2010,09,24,13,11,13.50
2010,09,24,13,12,13.50
2010,09,24,13,13,13.50
2010,09,24,13,14,13.50
2010,09,24,13,15,13.50
2010,09,24,13,16,13.50
2010,09,24,13,17,13.50
2010,09,24,13,18,13.50
2010,09,24,13,19,13.40
2010,09,24,13,20,13.40
2010,09,24,13,21,13.40
2010,09,24,13,22,13.40
2010,09,24,13,23,13.40
2010,09,24,13,24,13.40
2010,09,24,13,25,13.40
2010,09,24,13,26,13.40
2010,09,24,13,27,13.40
2010,09,24,13,28,13.40
2010,09,24,13,29,13.40
2010,09,24,13,30,13.40
2010,09,24,13,31,13.30
2010,09,24,13,32,13.30
2010,09,24,13,33,13.30
2010,09,24,13,34,13.30
2010,09,24,13,35,13.30
2010,09,24,13,36,13.30
2010,09,24,13,37,13.30
2010,09,24,13,38,13.30
2010,09,24,13,39,13.30
2010,09,24,13,40,13.30
2010,09,24,13,41,13.30
2010,09,24,13,42,13.30
2010,09,24,13,43,13.30
2010,09,24,13,44,13.30
2010,09,24,13,45,13.30
2010,09,24,13,46,13.30
2010,09,24,13,47,13.30
2010,09,24,13,48,13.20
2010,09,24,13,49,13.20
2010,09,24,13,50,13.10
2010,09,24,13,51,13.10
2010,09,24,13,52,13.10
2010,09,24,13,53,13.10
2010,09,24,13,54,13.10
2010,09,24,13,55,13.10
2010,09,24,13,56,13.10
2010,09,24,13,57,13.10
2010,09,24,13,58,13.10
2010,09,24,13,59,13.00
2010,09,24,14,00,13.00
2010,09,24,14,01,13.00
2010,09,24,14,02,13.00
2010,09,24,14,03,12.90
2010,09,24,14,04,12.90
2010,09,24,14,05,12.90
2010,09,24,14,06,12.90
2010,09,24,14,07,12.80
2010,09,24,14,08,12.80
2010,09,24,14,09,12.80
2010,09,24,14,10,12.80
2010,09,24,14,11,12.80
2010,09,24,14,12,12.80
2010,09,24,14,13,12.80
2010,09,24,14,14,12.80
2010,09,24,14,15,12.80
2010,09,24,14,16,12.80
2010,09,24,14,17,12.80
2010,09,24,14,18,12.80
2010,09,24,14,19,12.80
2010,09,24,14,20,12.80
2010,09,24,14,21,12.80
2010,09,24,14,22,12.80
2010,09,24,14,23,12.80
2010,09,24,14,24,12.80
2010,09,24,14,25,12.80
2010,09,24,14,26,12.80
2010,09,24,14,27,12.80
2010,09,24,14,28,12.80
2010,09,24,14,29,12.80
2010,09,24,14,30,12.80
2010,09,24,14,31,12.80
2010,09,24,14,32,12.80
2010,09,24,14,33,12.80
2010,09,24,14,34,12.80
2010,09,24,14,35,12.80
2010,09,24,14,36,12.80
2010,09,24,14,37,12.80
2010,09,24,14,38,12.80
2010,09,24,14,39,12.90
2010,09,24,14,40,12.90
2010,09,24,14,41,12.90
2010,09,24,14,42,12.90
2010,09,24,14,43,12.90
2010,09,24,14,44,12.90
2010,09,24,14,45,12.90
2010,09,24,14,46,12.90
2010,09,24,14,47,12.90
2010,09,24,14,48,12.90
2010,09,24,14,49,12.90
2010,09,24,14,50,12.80
2010,09,24,14,51,12.80
2010,09,24,14,52,12.80
2010,09,24,14,53,12.80
2010,09,24,14,54,12.80
2010,09,24,14,55,12.90
2010,09,24,14,56,12.90
2010,09,24,14,57,12.90
2010,09,24,14,58,12.90
2010,09,24,14,59,12.90
2010,09,24,15,00,12.90
2010,09,24,15,01,12.90
2010,09,24,15,02,12.90
2010,09,24,15,03,12.90
2010,09,24,15,04,12.90
2010,09,24,15,05,12.90
2010,09,24,15,06,13.00
2010,09,24,15,07,13.00
2010,09,24,15,08,13.00
2010,09,24,15,09,13.00
2010,09,24,15,10,13.10
2010,09,24,15,11,13.10
2010,09,24,15,12,13.10
2010,09,24,15,13,13.20
2010,09,24,15,14,13.20
2010,09,24,15,15,13.20
2010,09,24,15,16,13.30
2010,09,24,15,17,13.30
2010,09,24,15,18,13.30
2010,09,24,15,19,13.30
2010,09,24,15,20,13.30
2010,09,24,15,21,13.30
2010,09,24,15,22,13.40
2010,09,24,15,23,13.40
2010,09,24,15,24,13.50
2010,09,24,15,25,13.50
2010,09,24,15,26,13.50
2010,09,24,15,27,13.50
2010,09,24,15,28,13.50
2010,09,24,15,29,13.60
2010,09,24,15,30,13.60
2010,09,24,15,31,13.60
2010,09,24,15,32,13.60
2010,09,24,15,33,13.70
2010,09,24,15,34,13.70
2010,09,24,15,35,13.70
2010,09,24,15,36,13.70
2010,09,24,15,37,13.70
2010,09,24,15,38,13.70
2010,09,24,15,39,13.70
2010,09,24,15,40,13.70
2010,09,24,15,41,13.70
2010,09,24,15,42,13.70
2010,09,24,15,43,13.70
2010,09,24,15,44,13.70
2010,09,24,15,45,13.70
2010,09,24,15,46,13.70
2010,09,24,15,47,13.80
2010,09,24,15,48,13.80
2010,09,24,15,49,13.80
2010,09,24,15,50,13.80
2010,09,24,15,51,13.80
2010,09,24,15,52,13.80
2010,09,24,15,53,13.80
2010,09,24,15,54,13.80
2010,09,24,15,55,13.90
2010,09,24,15,56,13.90
2010,09,24,15,57,13.90
2010,09,24,15,58,13.90
2010,09,24,15,59,13.90
2010,09,24,16,00,13.90
2010,09,24,16,01,13.90
2010,09,24,16,02,13.90
2010,09,24,16,03,13.90
2010,09,24,16,04,14.00
2010,09,24,16,05,14.00
2010,09,24,16,06,14.00
2010,09,24,16,07,14.00
2010,09,24,16,08,14.00
2010,09,24,16,09,14.00
2010,09,24,16,10,14.00
2010,09,24,16,11,14.00
2010,09,24,16,12,14.00
2010,09,24,16,13,14.10
2010,09,24,16,14,14.10
2010,09,24,16,15,14.10
2010,09,24,16,16,14.10
2010,09,24,16,17,14.10
2010,09,24,16,18,14.10
2010,09,24,16,19,14.10
2010,09,24,16,20,14.10
2010,09,24,16,21,14.10
2010,09,24,16,22,14.20
2010,09,24,16,23,14.20
2010,09,24,16,24,14.20
2010,09,24,16,25,14.20
2010,09,24,16,26,14.20
2010,09,24,16,27,14.20
2010,09,24,16,28,14.20
2010,09,24,16,29,14.10
2010,09,24,16,30,14.10
2010,09,24,16,31,14.10
2010,09,24,16,32,14.10
2010,09,24,16,33,14.10
2010,09,24,16,34,14.10
2010,09,24,16,35,14.10
2010,09,24,16,36,14.10
2010,09,24,16,37,14.20
2010,09,24,16,38,14.20
2010,09,24,16,39,14.20
2010,09,24,16,40,14.20
2010,09,24,16,41,14.20
2010,09,24,16,42,14.20
2010,09,24,16,43,14.20
2010,09,24,16,44,14.20
2010,09,24,16,45,14.20
2010,09,24,16,46,14.20
2010,09,24,16,47,14.20
2010,09,24,16,48,14.20
2010,09,24,16,49,14.20
2010,09,24,16,50,14.20
2010,09,24,16,51,14.20
2010,09,24,16,52,14.20
2010,09,24,16,53,14.20
2010,09,24,16,54,14.20
2010,09,24,16,55,14.20
2010,09,24,16,56,14.20
2010,09,24,16,57,14.20
2010,09,24,16,58,14.20
2010,09,24,16,59,14.20
2010,09,24,17,00,14.20
2010,09,24,17,01,14.20
2010,09,24,17,02,14.20
2010,09,24,17,03,14.20
2010,09,24,17,04,14.20
2010,09,24,17,05,14.20
2010,09,24,17,06,14.30
2010,09,24,17,07,14.30
2010,09,24,17,08,14.30
2010,09,24,17,09,14.30
2010,09,24,17,10,14.30
2010,09,24,17,11,14.30
2010,09,24,17,12,14.30
2010,09,24,17,13,14.30
2010,09,24,17,14,14.30
2010,09,24,17,15,14.40
2010,09,24,17,16,14.40
2010,09,24,17,17,14.30
2010,09,24,17,18,14.40
2010,09,24,17,19,14.40
2010,09,24,17,20,14.40
2010,09,24,17,21,14.40
2010,09,24,17,22,14.40
2010,09,24,17,23,14.40
2010,09,24,17,24,14.40
2010,09,24,17,25,14.40
2010,09,24,17,26,14.40
2010,09,24,17,27,14.40
2010,09,24,17,28,14.40
2010,09,24,17,29,14.50
2010,09,24,17,30,14.50
2010,09,24,17,31,14.50
2010,09,24,17,32,14.50
2010,09,24,17,33,14.50
2010,09,24,17,34,14.50
2010,09,24,17,35,14.60
2010,09,24,17,36,14.60
2010,09,24,17,37,14.60
2010,09,24,17,38,14.60
2010,09,24,17,39,14.60
2010,09,24,17,40,14.60
2010,09,24,17,41,14.60
2010,09,24,17,42,14.60
2010,09,24,17,43,14.60
2010,09,24,17,44,14.60
2010,09,24,17,45,14.60
2010,09,24,17,46,14.60
2010,09,24,17,47,14.60
2010,09,24,17,48,14.60
2010,09,24,17,49,14.60
2010,09,24,17,50,14.60
2010,09,24,17,51,14.60
2010,09,24,17,52,14.70
2010,09,24,17,53,14.70
2010,09,24,17,54,14.70
2010,09,24,17,55,14.70
2010,09,24,17,56,14.70
2010,09,24,17,57,14.70
2010,09,24,17,58,14.70
2010,09,24,17,59,14.70
2010,09,24,18,00,14.70
2010,09,24,18,01,14.70
2010,09,24,18,02,14.70
2010,09,24,18,03,14.70
2010,09,24,18,04,14.60
2010,09,24,18,05,14.60
2010,09,24,18,06,14.60
2010,09,24,18,07,14.60
2010,09,24,18,08,14.60
2010,09,24,18,09,14.50
2010,09,24,18,10,14.50
2010,09,24,18,11,14.50
2010,09,24,18,12,14.50
2010,09,24,18,13,14.50
2010,09,24,18,14,14.50
2010,09,24,18,15,14.50
2010,09,24,18,16,14.50
2010,09,24,18,17,14.50
2010,09,24,18,18,14.50
2010,09,24,18,19,14.50
2010,09,24,18,20,14.50
2010,09,24,18,21,14.50
2010,09,24,18,22,14.50
2010,09,24,18,23,14.50
2010,09,24,18,24,14.40
2010,09,24,18,25,14.40
2010,09,24,18,26,14.40
2010,09,24,18,27,14.40
2010,09,24,18,28,14.30
2010,09,24,18,29,14.30
2010,09,24,18,30,14.30
2010,09,24,18,31,14.20
2010,09,24,18,32,14.20
2010,09,24,18,33,14.20
2010,09,24,18,34,14.20
2010,09,24,18,35,14.20
2010,09,24,18,36,14.20
2010,09,24,18,37,14.20
2010,09,24,18,38,14.20
2010,09,24,18,39,14.20
2010,09,24,18,40,14.20
2010,09,24,18,41,14.20
2010,09,24,18,42,14.20
2010,09,24,18,43,14.20
2010,09,24,18,44,14.20
2010,09,24,18,45,14.20
2010,09,24,18,46,14.20
2010,09,24,18,47,14.20
2010,09,24,18,48,14.20
2010,09,24,18,49,14.20
2010,09,24,18,50,14.20
2010,09,24,18,51,14.20
